Zurück zum Katalog

COSMOS 2251 DEB

AktivLEO
NORAD 39553·DEBRIS·🇷🇺 Russia

Gestartet Jun 16, 1993 von Plesetsk Cosmodrome

Loading…

Nächste Überflüge (nächste 24 Stunden)

TLE

AktuellSource: Space-Track

Epoche: Sep 14, 2026, 03:11 UTC

1 39553U 93036BUK 26257.13307146  .00001690  00000-0  95440-3 0  9994
2 39553  74.0275 212.5437 0206882 285.0276  72.8045 14.00823002794727

Verfolge COSMOS 2251 DEB in Echtzeit mit AllMySat

Download on the App Store